Tracking 22130 objects as of 21-Jan-2021
HD Live streaming from Space Station
objects crossing your sky now

STTW-T2

Track STTW-T2 now!
STTW-T2 is classified as:


NORAD ID: 14899
Int'l Code: 1984-035A
Perigee: 35,770.6 km
Apogee: 35,841.6 km
Inclination: 12.8 °
Period: 1,436.7 minutes
Semi major axis: 42177 km
RCS: 3.981 m2 (large)
Launch date: April 8, 1984
Source: People's Republic of China (PRC)
Launch site: Xichang Space Center, China (XSC)
aabbcc
Your satellite tracking list
Your tracking list is empty




NASA's NSSDC Master Catalog

Two Line Element Set (TLE):
1 14899U 84035A   21020.26291909  .00000097  00000-0  00000-0 0  9990
2 14899  12.7527 333.2215 0008425 118.1448 142.2526  1.00227776 27577
Source of the keplerian elements: AFSPC